TimeMST,TemperatureF,Dew PointF,Humidity,Sea Level PressureIn,VisibilityMPH,Wind Direction,Wind SpeedMPH,Gust SpeedMPH,PrecipitationIn,Events,Conditions,WindDirDegrees,DateUTC
12:03 AM,26.6,24.8,93,30.37,0.8,Calm,Calm,-,N/A,,Overcast,0,2013-02-03 07:03:00
12:53 AM,26.1,25.0,96,30.43,0.5,NE,4.6,-,N/A,Fog,Light Freezing Fog,50,2013-02-03 07:53:00
1:07 AM,26.6,24.8,93,30.35,1.5,NE,6.9,-,N/A,,Overcast,50,2013-02-03 08:07:00
1:28 AM,26.6,24.8,93,30.35,3.0,ENE,6.9,-,N/A,,Overcast,70,2013-02-03 08:28:00
1:53 AM,27.0,25.0,92,30.40,3.0,East,3.5,-,N/A,,Overcast,80,2013-02-03 08:53:00
2:20 AM,26.6,24.8,93,30.33,2.0,East,5.8,-,N/A,,Overcast,80,2013-02-03 09:20:00
2:41 AM,26.6,24.8,93,30.32,3.0,East,4.6,-,N/A,,Overcast,80,2013-02-03 09:41:00
2:53 AM,26.1,24.1,92,30.38,3.0,East,3.5,-,N/A,,Overcast,90,2013-02-03 09:53:00
3:41 AM,24.8,21.2,86,30.30,2.5,NNE,4.6,-,N/A,,Overcast,30,2013-02-03 10:41:00
3:49 AM,24.8,21.2,86,30.30,2.0,NNE,4.6,-,N/A,,Overcast,30,2013-02-03 10:49:00
3:53 AM,24.1,21.9,91,30.37,1.5,NNE,4.6,-,N/A,,Overcast,30,2013-02-03 10:53:00
4:20 AM,24.8,23.0,93,30.29,0.5,NE,3.5,-,N/A,Fog,Light Freezing Fog,40,2013-02-03 11:20:00
4:53 AM,24.1,23.0,96,30.38,0.5,Calm,Calm,-,N/A,Fog,Light Freezing Fog,0,2013-02-03 11:53:00
5:09 AM,24.8,23.0,93,30.29,2.0,East,3.5,-,N/A,,Overcast,80,2013-02-03 12:09:00
5:18 AM,24.8,23.0,93,30.29,4.0,East,3.5,-,N/A,,Overcast,80,2013-02-03 12:18:00
5:53 AM,24.1,21.9,91,30.38,6.0,East,5.8,-,N/A,,Overcast,90,2013-02-03 12:53:00
6:53 AM,24.1,21.9,91,30.35,6.0,East,3.5,-,N/A,,Overcast,90,2013-02-03 13:53:00
7:53 AM,24.1,23.0,96,30.35,1.2,NE,3.5,-,N/A,,Overcast,50,2013-02-03 14:53:00
8:53 AM,25.0,23.0,92,30.38,2.0,North,6.9,-,N/A,,Overcast,10,2013-02-03 15:53:00
9:53 AM,24.1,23.0,96,30.36,1.5,Calm,Calm,-,N/A,,Overcast,0,2013-02-03 16:53:00
10:53 AM,27.0,24.1,89,30.34,2.5,Calm,Calm,-,N/A,,Overcast,0,2013-02-03 17:53:00
11:53 AM,26.1,24.1,92,30.38,5.0,North,9.2,-,0.00,,Overcast,10,2013-02-03 18:53:00
12:53 PM,28.9,24.1,82,30.30,4.0,Calm,Calm,-,N/A,,Haze,0,2013-02-03 19:53:00
1:53 PM,30.9,25.0,79,30.30,6.0,NW,4.6,-,N/A,,Haze,310,2013-02-03 20:53:00
2:37 PM,32.0,26.6,80,30.19,10.0,West,4.6,-,N/A,,Scattered Clouds,280,2013-02-03 21:37:00
2:53 PM,33.1,26.1,75,30.27,10.0,Variable,3.5,-,N/A,,Scattered Clouds,0,2013-02-03 21:53:00
3:53 PM,32.0,26.1,79,30.29,10.0,NNW,5.8,-,N/A,,Scattered Clouds,330,2013-02-03 22:53:00
4:53 PM,32.0,25.0,75,30.27,10.0,Calm,Calm,-,N/A,,Partly Cloudy,0,2013-02-03 23:53:00
5:53 PM,28.9,25.0,85,30.27,10.0,Calm,Calm,-,N/A,,Scattered Clouds,0,2013-02-04 00:53:00
6:30 PM,26.6,24.8,93,30.21,9.0,NNE,3.5,-,N/A,,Mostly Cloudy,20,2013-02-04 01:30:00
6:53 PM,28.0,25.0,88,30.31,10.0,SE,3.5,-,N/A,,Overcast,130,2013-02-04 01:53:00
7:53 PM,28.9,27.0,92,30.29,10.0,WSW,10.4,-,N/A,,Overcast,240,2013-02-04 02:53:00
8:53 PM,30.0,27.0,88,30.31,10.0,Calm,Calm,-,N/A,,Overcast,0,2013-02-04 03:53:00
9:53 PM,30.0,27.0,88,30.31,10.0,SW,10.4,-,N/A,,Overcast,220,2013-02-04 04:53:00
10:53 PM,30.0,27.0,88,30.29,9.0,WSW,10.4,-,N/A,,Overcast,250,2013-02-04 05:53:00
11:53 PM,28.9,27.0,92,30.29,7.0,WSW,9.2,-,N/A,,Overcast,240,2013-02-04 06:53:00